Regional Weather Roundup
Issued by NWS

Home | Current Version | Previous Version | Text Only | Print | Product List | Glossary On
Versions: 1 2 3 4 5 6 7 8 9 10 11 12 13 14 15 16 17 18 19 20 21 22 23 24 25 26 27 28 29 30 31 32 33 34 35 36 37 38 39 40 41 42 43 44 45 46 47 48 49 50
000
ASUS43 KMKX 270411
RWRWI

WISCONSIN REGIONAL WEATHER ROUNDUP
NATIONAL WEATHER SERVICE MILWAUKEE/SULLIVAN WI
1100 PM CDT TUE JUL 26 2016

NOTE: "FAIR" INDICATES FEW OR NO CLOUDS BELOW 12,000 FEET WITH NO
SIGNIFICANT WEATHER AND/OR OBSTRUCTIONS TO VISIBILITY.

WIZ001-002-006>008-014>016-023>028-270500-
NORTHWEST WISCONSIN

CITY           SKY/WX    TMP DP  RH WIND       PRES   REMARKS
SUPERIOR ARPT  CLOUDY    68  64  88 CALM      29.95F
ASHLAND        CLOUDY    72  67  84 SW5       29.97R
HAYWARD        LGT RAIN  70  66  87 CALM      30.01S
SIREN          PTCLDY    70  63  78 SE5       29.98F
CUMBERLAND     MOCLDY    70  61  73 CALM      30.00F
RICE LAKE      MOCLDY    73  63  72 CALM      30.01F
CHETEK         MOCLDY    75  66  73 NW5       30.00S
LADYSMITH      MOCLDY    75  62  65 NW14G24   30.02R
EAU CLAIRE     CLOUDY    75  68  78 SW5       29.98R
MENOMONIE      CLEAR     76  66  73 SW3       30.00R
NEW RICHMOND   CLOUDY    71  62  74 CALM      30.00F
OSCEOLA        CLOUDY    72  62  71 CALM      30.01F
$$

WIZ003>005-009-010-017-018-270500-
NORTH CENTRAL WISCONSIN

CITY           SKY/WX    TMP DP  RH WIND       PRES   REMARKS
MANITOWISH WTR FOG       65  65 100 CALM      30.00S VSB 1/2
ARBOR VITAE    PTCLDY    67  64  91 CALM      30.00S
WOODRUFF       PTCLDY    67  64  91 CALM      30.00S
RHINELANDER    CLOUDY    68  63  84 CALM      30.01F
EAGLE RIVER    CLOUDY    65  65 100 CALM      30.00S FOG
LAND O LAKES   CLOUDY    64  64  98 CALM      30.01S
PHILLIPS       PTCLDY    69  68  96 CALM      29.99S
TOMAHAWK       CLOUDY    66  64  93 CALM      30.00F
MEDFORD        CLEAR     71  68  89 SW5       30.00F
MERRILL        PTCLDY    70  67  90 CALM      30.00S
$$

WIZ029-030-035-036-043>047-270500-
CENTRAL WISCONSIN

CITY           SKY/WX    TMP DP  RH WIND       PRES   REMARKS
WAUSAU         CLEAR     74  67  78 VRB3      29.98F
MOSINEE        CLEAR     72  68  88 SW6       30.01S
MARSHFIELD     CLEAR     71  66  84 SW5       30.01R
STEVENS POINT  CLEAR     73  66  80 SW3       30.00F
WAUPACA        CLEAR     74  69  87 CALM      29.99S
WAUTOMA        PTCLDY    73  68  84 SW3       30.00F
WISC RAPIDS    CLEAR     74  65  73 W6        30.01S
CAMP DOUGLAS   PTCLDY    66  64  94 SE1       30.01S
$$

WIZ011>013-019>022-031-037>040-048>050-270500-
NORTHEAST WISCONSIN

CITY           SKY/WX    TMP DP  RH WIND       PRES   REMARKS
ANTIGO         CLEAR     70  66  88 CALM      30.01F
SHAWANO        CLEAR     76  68  75 SW3       29.98S
OCONTO         CLEAR     74  72  92 SW5       29.94F
STURGEON BAY   CLEAR     75  68  78 SW7       29.96F
GREEN BAY      CLEAR     74  70  87 SW3       29.97F
MANITOWOC      CLEAR     74  65  73 SW5       29.98F
APPLETON       PTCLDY    75  64  69 SW7       29.98S
CLINTONVILLE   CLEAR     73  64  73 SW3       29.98S
OSHKOSH        CLEAR     74  66  76 S5        29.99S
$$

WIZ032>034-041-042-053>061-270500-
SOUTHWEST WISCONSIN

CITY           SKY/WX    TMP DP  RH WIND       PRES   REMARKS
LA CROSSE      CLEAR     78  69  73 S5        29.99S HX  80
SPARTA         CLEAR     68  66  95 CALM      30.02R
VIROQUA        CLEAR     72  66  81 S6        30.03S
BOSCOBEL       CLEAR     70  68  93 W3        30.02S
PRAIRIE DU CHI CLEAR     71  66  83 CALM      30.01S
PLATTEVILLE    CLEAR     72  68  87 CALM      30.04R
$$

WIZ056-057-062-063-064-067-068-270500-
SOUTH CENTRAL WISCONSIN

CITY           SKY/WX    TMP DP  RH WIND       PRES   REMARKS
REEDSBURG      PTCLDY    73  69  88 CALM      30.01S
BARABOO/DELLS  PTCLDY    72  64  77 CALM      30.02S
LONE ROCK      CLEAR     69  66  90 NE3       30.02S
MINERAL POINT  CLEAR     73  68  83 CALM      30.04S
MADISON        CLEAR     72  65  78 CALM      30.01F
MIDDLETON      CLEAR     70  67  90 CALM      30.02F
WATERTOWN      CLEAR     69  69 100 CALM      30.02R
MONROE         CLEAR     73  63  68 W5        30.03S
JANESVILLE     CLEAR     72  68  88 CALM      30.01S
$$

WIZ051-052-058>065-066-070>072-270500-
SOUTHEAST WISCONSIN

CITY           SKY/WX    TMP DP  RH WIND       PRES   REMARKS
MILWAUKEE      CLEAR     77  62  59 CALM      30.02R
WAUKESHA       CLEAR     68  63  83 CALM      30.03S
MILWAUKEE/TIMM CLEAR     73  57  56 CALM      30.03R
RACINE         CLEAR     74  63  68 SW3       30.03R
BURLINGTON     CLEAR     67  65  95 CALM      30.02R
KENOSHA        CLEAR     70  63  78 SW3       30.02R
FOND DU LAC    CLEAR     72  66  81 SW6       30.00F
SHEBOYGAN      CLEAR     69  62  78 S5        29.99F
WEST BEND      CLEAR     70  64  83 CALM      30.01F
JUNEAU         CLEAR     71  66  84 CALM      30.03R
$$

LSZ147-162-270500-
LAKE SUPERIOR

STATION/POSITION TIME  TEMP    WIND        PRES    WAVE
                       AIR SEA DIR/SP/G            HT/PER
                 (UTC) (F)     (DEG/KT/KT) (MB)    (FT/S)
W MID LAKE BUOY  0350   65 62  320/  6/  8 1013.1R   1
DEVILS ISLAND    0400   69     240/  9/ 10 1013.9R
PORT WING        0240   74     160/  5/  5 1014.2R
SAXON HARBOR     0300   73     200/  5/  6 1013.5S
$$

LMZ867-665-643>646-270500-
LAKE MICHIGAN

STATION/POSITION TIME  TEMP    WIND        PRES    WAVE
                       AIR SEA DIR/SP/G            HT/PER
                 (UTC) (F)     (DEG/KT/KT) (MB)    (FT/S)
CHAMBERS ISLAND  0300   78     200/  9/ 13 1013.5S
S GREEN BAY BUOY 0300   77 74  210/  8/ 10   N/A
N MID LAKE BUOY  0350   72 69  220/ 16/ 17 1012.3R   3/ 4
NORTHPORT PIER   0300   77     170/  2/  7 1013.5R
SISTER BAY       0321   81     250/ 12/ 14   N/A
ALGOMA LAKESHORE 0313          220/  5/  7   N/A
KEWAUNEE LAKESHO 0300          200/  7/  7   N/A
SHEBOYGAN LAKESH 0400   74     200/  6/  6 1015.4F
PORT WASHINGTON  0340   64      CALM  /  2 1016.6S
ATWATER BUOY     0400   66 61  240/  2/  2 1017.9R
MILWAUKEE LAKESH 0310   72     260/  1/  1   N/A
S MID LAKE BUOY  0350   75 76  160/  6/  8 1015.4R   0
KENOSHA   LAKESH 0400   76     210/  4/  8 1015.9R
$$

TC  - TEMPERATURE IN CELSIUS
VSB - VISIBILITY IN STATUTE MILES
WCI - WIND CHILL INDEX
HX  - HEAT INDEX





USA.gov is the U.S. government's official web portal to all federal, state and local government web resources and services.